Timestamp[UTC];2m Lufttemperatur [degC] (tas);Stations-Luftdruck [Pa] (ps);relative Luftfeuchtigkeit [%] (hurs);spezifische Luftfeuchtigkeit [kg/kg] (huss);Niederschlagsmenge [mm] (pr);Windgeschwindigkeit in 2m [m/s] (sfcWind);Windrichtung [deg];maximale Windgeschwindigkeit [m/s] (wsgsmax);u-Windkomponente [m/s] (uas);v-Windkomponente [m/s] (vas);Sonneneinstrahlung [W/m2];Blitzrate [n];Blitzentfernung [km];Bodenfeuchte in 5cm Tiefe [vol%];Bodenfeuchte in 15cm Tiefe [vol%];Bodenfeuchte in 30cm Tiefe [vol%];Bodenfeuchte in 60cm Tiefe [vol%];Bodentemperatur in 5cm Tiefe [degC];Bodentemperatur in 15cm Tiefe [degC];Bodentemperatur in 30cm Tiefe [degC];Bodentemperatur in 60cm Tiefe [degC];Matrixpotential in 30cm Tiefe [kPa];Bodenfeuchte aus CRNS [vol%] (mrso);Neutronen Anzahl [N/h]
2023-09-01 00:00:00;11,2;100890;98;0,0081;0,0;0,4;311;0,7;-0,26;0,23;0;0;nan;21,6;21,4;23,1;26,2;15,4;16,7;17,5;18,1;-15,6;24,0;1432
2023-09-01 01:00:00;10,7;100870;98;0,0078;0,0;0,3;288;0,8;-0,3;0,1;0;0;nan;21,6;21,4;23,1;26,2;15,1;16,5;17,4;18,1;-15,6;24,1;1432
2023-09-01 02:00:00;10,4;100880;98;0,0076;0,0;0,5;293;1,1;-0,44;0,19;0;0;nan;21,5;21,4;23,1;26,2;14,7;16,2;17,4;18,1;-15,6;24,1;1431
2023-09-01 03:00:00;10,4;100880;99;0,0077;0,0;0,4;346;1,2;-0,09;0,36;0;0;nan;21,5;21,4;23,1;26,2;14,4;16,0;17,3;18,0;-15,6;24,2;1430
2023-09-01 04:00:00;10,6;100840;99;0,0078;0,0;0,6;82;2,0;0,58;0,08;1;0;nan;21,5;21,4;23,1;26,2;14,3;15,8;17,2;18,0;-15,6;24,5;1425
2023-09-01 05:00:00;11,4;100850;98;0,0082;0,0;1,0;100;2,1;0,99;-0,17;24;0;nan;21,5;21,4;23,1;26,2;14,2;15,6;17,0;18,0;-15,6;24,5;1424
2023-09-01 06:00:00;12,4;100860;99;0,0088;0,0;0,8;78;1,7;0,77;0,16;94;0;nan;21,5;21,4;23,1;26,2;14,3;15,5;16,9;18,0;-15,6;24,9;1418
2023-09-01 07:00:00;13,9;100860;100;0,0098;0,0;1,0;84;2,8;0,95;0,1;140;0;nan;21,5;21,4;23,1;26,2;14,7;15,4;16,8;18,0;-15,6;25,6;1409
2023-09-01 08:00:00;14,9;100870;100;0,0105;0,0;1,3;92;2,4;1,31;-0,04;153;0;nan;21,4;21,4;23,1;26,2;15,3;15,5;16,7;18,0;-15,6;25,4;1411
2023-09-01 09:00:00;15,5;100870;97;0,0106;0,0;1,6;96;4,0;1,55;-0,16;194;0;nan;21,4;21,4;23,1;26,2;16,0;15,7;16,7;17,9;-15,6;25,4;1410
2023-09-01 10:00:00;16,2;100900;94;0,0107;0,58;1,4;144;4,3;0,8;-1,12;87;0;nan;21,4;21,4;23,1;26,2;16,4;16,0;16,6;17,9;-15,6;25,7;1406
2023-09-01 11:00:00;15,8;100910;98;0,0109;0,25;0,9;112;2,0;0,87;-0,35;70;0;nan;21,4;21,4;23,1;26,2;16,5;16,2;16,7;17,9;-15,6;26,0;1402
2023-09-01 12:00:00;16,0;100920;100;0,0113;1,8;0,8;94;2,0;0,84;-0,06;85;0;nan;21,5;21,4;23,1;26,2;16,8;16,4;16,7;17,9;-15,6;26,3;1398
2023-09-01 13:00:00;16,3;100930;100;0,0115;1,05;0,9;68;2,3;0,8;0,32;105;0;nan;21,8;21,4;23,1;26,2;17,1;16,6;16,8;17,8;-15,6;26,2;1399
2023-09-01 14:00:00;16,8;100940;100;0,0118;0,32;0,8;15;2,4;0,21;0,79;232;0;nan;22,1;21,4;23,1;26,2;17,7;16,8;16,8;17,8;-15,6;26,5;1394
2023-09-01 15:00:00;17,9;100960;99;0,0126;0,0;1,2;329;3,2;-0,61;1,0;150;0;nan;22,5;21,5;23,1;26,2;18,4;17,1;16,9;17,8;-15,6;26,9;1389
2023-09-01 16:00:00;17,8;101023;97;0,0123;0,0;1,4;322;2,4;-0,83;1,07;58;0;nan;22,7;21,5;23,1;26,2;18,6;17,4;17,0;17,7;-15,6;27,2;1386
2023-09-01 17:00:00;17,6;101080;97;0,0121;0,0;0,7;296;1,4;-0,62;0,3;35;0;nan;22,7;21,6;23,1;26,2;18,5;17,7;17,1;17,7;-15,6;27,5;1381
2023-09-01 18:00:00;16,7;101130;98;0,0115;0,0;0,4;267;0,9;-0,37;-0,02;8;0;nan;22,8;21,6;23,1;26,2;18,3;17,8;17,2;17,7;-15,6;27,6;1380
2023-09-01 19:00:00;15,2;101210;99;0,0106;0,0;0,3;254;0,8;-0,32;-0,09;0;0;nan;22,8;21,7;23,1;26,2;17,8;17,8;17,3;17,7;-15,6;27,6;1380
2023-09-01 20:00:00;14,4;101260;99;0,01;0,0;0,4;315;1,0;-0,25;0,25;0;0;nan;22,8;21,7;23,1;26,2;17,3;17,6;17,4;17,7;-15,6;27,7;1379
2023-09-01 21:00:00;14,5;101290;99;0,0101;0,0;0,4;266;0,8;-0,4;-0,03;0;0;nan;22,8;21,8;23,2;26,2;17,0;17,5;17,4;17,7;-15,5;27,6;1380
2023-09-01 22:00:00;14,2;101320;100;0,01;0,02;0,4;136;0,8;0,27;-0,28;0;0;nan;22,7;21,8;23,2;26,2;16,7;17,3;17,4;17,7;-15,5;27,7;1378
2023-09-01 23:00:00;14,3;101340;99;0,0099;0,36;0,4;352;1,3;-0,06;0,45;0;0;nan;22,7;21,9;23,2;26,2;16,5;17,1;17,4;17,7;-15,4;28,1;1373
2023-09-02 00:00:00;14,7;101360;100;0,0103;0,17;0,5;34;1,1;0,12;0,17;0;0;nan;22,7;21,9;23,2;26,2;16,4;17,0;17,4;17,7;-15,4;28,1;1373
2023-09-02 01:00:00;15,0;101370;100;0,0105;0,34;0,4;195;1,4;-0,09;-0,34;0;0;nan;22,8;21,9;23,2;26,2;16,4;16,9;17,3;17,7;-15,4;28,4;1369
2023-09-02 02:00:00;15,0;101360;100;0,0105;0,37;0,7;108;2,5;0,7;-0,23;0;0;nan;22,9;22,0;23,2;26,2;16,3;16,8;17,3;17,7;-15,3;28,6;1367
2023-09-02 03:00:00;14,5;101390;100;0,0102;0,02;0,5;302;1,2;-0,42;0,26;0;0;nan;23,0;22,0;23,2;26,2;16,0;16,7;17,3;17,7;-15,3;28,5;1368
2023-09-02 04:00:00;14,6;101400;99;0,0101;0,02;0,3;270;0,9;-0,32;0,0;0;0;nan;23,0;22,1;23,2;26,2;15,9;16,6;17,2;17,7;-15,3;28,5;1368
2023-09-02 05:00:00;14,8;101440;100;0,0104;0,0;0,4;293;1,2;-0,36;0,15;9;0;nan;23,1;22,1;23,3;26,2;15,9;16,5;17,2;17,7;-15,2;28,3;1370
2023-09-02 06:00:00;15,1;101490;100;0,0106;0,0;0,5;322;1,1;-0,29;0,37;65;0;nan;23,1;22,1;23,3;26,2;16,0;16,5;17,1;17,7;-15,2;28,3;1371
2023-09-02 07:00:00;16,0;101560;100;0,0112;0,0;0,5;143;1,5;0,31;-0,41;142;0;nan;23,1;22,2;23,3;26,2;16,4;16,5;17,1;17,7;-15,2;28,0;1374
2023-09-02 08:00:00;17,0;101650;100;0,0119;0,0;0,6;217;1,3;-0,35;-0,46;176;0;nan;23,1;22,2;23,3;26,2;17,0;16,6;17,1;17,7;-15,1;28,3;1371
2023-09-02 09:00:00;18,1;101690;100;0,0128;0,0;0,9;269;2,5;-0,93;-0,01;282;0;nan;23,1;22,3;23,3;26,2;17,8;16,8;17,1;17,7;-15,1;28,3;1371
2023-09-02 10:00:00;19,0;101700;99;0,0134;0,0;1,2;331;7,0;-0,58;1,06;287;0;nan;23,1;22,3;23,3;26,2;18,8;17,2;17,1;17,7;-15,0;28,2;1372
2023-09-02 11:00:00;19,9;101740;97;0,0139;0,0;1,0;7;2,4;0,12;0,94;341;0;nan;23,1;22,3;23,4;26,2;19,7;17,7;17,2;17,7;-15,0;27,6;1380
2023-09-02 12:00:00;20,5;101770;94;0,014;0,0;2,2;324;4,7;-1,27;1,74;394;0;nan;23,0;22,3;23,4;26,2;20,6;18,2;17,3;17,7;-14,9;27,4;1383
2023-09-02 13:00:00;20,8;101800;94;0,0142;0,0;2,9;330;5,0;-1,46;2,55;459;0;nan;23,0;22,4;23,4;26,2;21,4;18,8;17,4;17,6;-14,9;27,6;1380
2023-09-02 14:00:00;20,9;101805;90;0,0136;0,0;2,0;330;4,2;-1,02;1,75;324;0;nan;22,9;22,4;23,4;26,2;22,0;19,3;17,7;17,6;-14,9;27,5;1381
2023-09-02 15:00:00;21,3;101810;83;0,0129;0,0;1,8;318;4,0;-1,24;1,36;233;0;nan;22,8;22,4;23,4;26,2;22,2;19,8;17,9;17,6;-14,9;27,4;1382
2023-09-02 16:00:00;21,8;101830;79;0,0127;0,0;1,2;296;3,0;-1,11;0,53;244;0;nan;22,8;22,4;23,4;26,2;22,3;20,1;18,1;17,6;-14,8;27,2;1386
2023-09-02 17:00:00;21,3;101870;82;0,0127;0,0;1,1;311;2,8;-0,82;0,7;82;0;nan;22,8;22,4;23,4;26,2;22,1;20,4;18,4;17,7;-14,8;27,0;1388
2023-09-02 18:00:00;18,8;101960;91;0,0121;0,0;0,7;320;1,8;-0,44;0,52;4;0;nan;22,7;22,4;23,5;26,2;21,5;20,4;18,6;17,7;-14,8;27,2;1386
2023-09-02 19:00:00;18,1;102000;92;0,0117;0,0;0,7;331;2,2;-0,35;0,63;0;0;nan;22,6;22,3;23,5;26,2;20,7;20,3;18,7;17,7;-14,8;27,0;1389
2023-09-02 20:00:00;16,2;102055;96;0,0108;0,0;0,4;285;0,9;-0,42;0,12;0;0;nan;22,6;22,3;23,5;26,1;20,0;20,1;18,8;17,7;-14,8;27,3;1383
2023-09-02 21:00:00;15,1;102110;98;0,0103;0,0;0,5;308;0,8;-0,37;0,29;0;0;nan;22,5;22,3;23,5;26,1;19,4;19,8;18,9;17,8;-14,8;27,0;1388
2023-09-02 22:00:00;14,4;102130;98;0,0098;0,0;0,4;293;0,8;-0,37;0,16;0;0;nan;22,5;22,3;23,5;26,1;18,8;19,5;18,9;17,8;-14,8;26,8;1391
2023-09-02 23:00:00;13,7;102170;98;0,0094;0,0;0,4;283;0,7;-0,36;0,08;0;0;nan;22,5;22,3;23,5;26,1;18,2;19,1;18,8;17,9;-14,8;26,3;1398
2023-09-03 00:00:00;12,8;102180;98;0,0089;0,0;0,4;257;0,9;-0,42;-0,1;0;0;nan;22,5;22,3;23,5;26,1;17,6;18,8;18,8;17,9;-14,8;26,1;1400
2023-09-03 01:00:00;12,6;102220;98;0,0087;0,0;0,4;346;0,7;-0,09;0,37;0;0;nan;22,5;22,2;23,5;26,1;17,1;18,4;18,7;17,9;-14,8;25,9;1404
2023-09-03 02:00:00;12,1;102210;99;0,0085;0,02;0,3;318;0,7;-0,2;0,22;0;0;nan;22,5;22,2;23,5;26,1;16,7;18,0;18,6;18,0;-14,8;25,7;1407
2023-09-03 03:00:00;11,7;102203;98;0,0083;0,06;0,4;269;0,8;-0,36;-0,0;0;0;nan;22,5;22,2;23,5;26,1;16,3;17,7;18,4;18,0;-14,8;25,8;1405
2023-09-03 04:00:00;11,5;102230;99;0,0082;0,02;0,5;313;1,0;-0,39;0,37;0;0;nan;22,5;22,2;23,5;26,1;15,9;17,4;18,3;18,0;-14,8;25,6;1408
2023-09-03 05:00:00;11,0;102320;100;0,008;0,04;0,6;312;0,9;-0,42;0,37;38;0;nan;22,5;22,2;23,5;26,1;15,6;17,1;18,1;18,0;-14,8;25,6;1408
2023-09-03 06:00:00;12,1;102383;100;0,0086;0,04;0,3;288;0,7;-0,27;0,09;123;0;nan;22,5;22,2;23,5;26,1;15,4;16,9;18,0;18,1;-14,8;25,5;1410
2023-09-03 07:00:00;14,2;102450;100;0,0099;0,02;1,0;101;2,0;1,0;-0,19;233;0;nan;22,4;22,2;23,5;26,1;15,7;16,7;17,9;18,1;-14,8;25,5;1410
2023-09-03 08:00:00;16,3;102460;100;0,0113;0,0;1,2;103;3,1;1,13;-0,26;380;0;nan;22,4;22,2;23,5;26,1;16,4;16,7;17,7;18,1;-14,8;25,3;1412
2023-09-03 09:00:00;18,5;102460;91;0,0118;0,0;1,0;62;3,3;0,93;0,49;478;0;nan;22,4;22,2;23,5;26,1;17,5;16,9;17,6;18,1;-14,8;25,3;1412
2023-09-03 10:00:00;19,7;102480;80;0,0112;0,0;1,2;354;2,8;-0,12;1,18;535;0;nan;22,4;22,2;23,5;26,1;18,9;17,3;17,6;18,0;-14,8;25,0;1416
2023-09-03 11:00:00;20,8;102460;71;0,0106;0,0;1,1;64;3,5;0,97;0,47;518;0;nan;22,4;22,1;23,5;26,1;20,3;18,0;17,6;18,0;-14,8;25,1;1415
2023-09-03 12:00:00;21,2;102450;67;0,0103;0,0;1,3;89;4,2;1,27;0,02;491;0;nan;22,4;22,1;23,5;26,1;21,5;18,7;17,7;18,0;-14,8;25,1;1416
2023-09-03 13:00:00;21,7;102440;65;0,0103;0,0;1,6;88;3,6;1,55;0,06;453;0;nan;22,4;22,1;23,5;26,1;22,4;19,5;17,9;18,0;-14,8;24,7;1421
2023-09-03 14:00:00;22,3;102430;60;0,0098;0,0;1,1;117;3,2;0,98;-0,49;437;0;nan;22,4;22,1;23,5;26,1;22,9;20,1;18,2;18,0;-14,8;24,4;1427
2023-09-03 15:00:00;22,2;102420;64;0,0104;0,0;1,3;110;3,2;1,26;-0,47;277;0;nan;22,3;22,1;23,5;26,1;23,3;20,6;18,5;18,0;-14,8;24,2;1429
2023-09-03 16:00:00;21,7;102450;65;0,0103;0,0;0,6;167;2,5;0,15;-0,63;114;0;nan;22,3;22,1;23,5;26,1;23,3;21,0;18,7;18,0;-14,8;24,3;1429
2023-09-03 17:00:00;nan;nan;nan;nan;0,0;nan;nan;nan;nan;nan;nan;0;nan;22,2;22,1;23,5;26,1;22,7;21,2;19,0;18,0;-14,8;24,0;1433
2023-09-03 18:00:00;19,3;102440;79;0,0108;0,0;0,4;302;0,9;-0,34;0,21;33;0;nan;22,1;22,0;23,5;26,1;21,9;21,1;19,2;18,0;-14,8;23,8;1436
2023-09-03 19:00:00;16,7;102440;90;0,0104;0,0;0,4;322;1,0;-0,27;0,35;1;0;nan;22,0;22,0;23,5;26,1;21,0;20,9;19,3;18,0;-14,9;23,9;1434
2023-09-03 20:00:00;15,1;102460;94;0,0098;0,0;0,4;323;1,2;-0,23;0,3;0;0;nan;21,9;22,0;23,5;26,1;20,2;20,6;19,4;18,0;-14,9;23,3;1445
2023-09-03 21:00:00;14,2;102430;96;0,0095;0,0;0,3;320;0,9;-0,19;0,23;0;0;nan;21,9;22,0;23,5;26,1;19,5;20,2;19,4;18,1;-14,9;23,5;1442
2023-09-03 22:00:00;13,6;102420;96;0,0091;0,0;0,3;281;0,8;-0,31;0,06;0;0;nan;21,8;21,9;23,5;26,1;18,8;19,8;19,4;18,1;-14,9;23,4;1443
2023-09-03 23:00:00;13,0;102430;96;0,0088;0,0;0,5;310;1,0;-0,37;0,31;0;0;nan;21,7;21,9;23,5;26,1;18,2;19,4;19,3;18,2;-14,9;23,2;1446
2023-09-04 00:00:00;12,2;102440;97;0,0084;0,0;0,4;307;0,8;-0,31;0,23;0;0;nan;21,7;21,9;23,5;26,1;17,6;19,0;19,2;18,2;-14,9;23,6;1440
2023-09-04 01:00:00;11,7;102450;97;0,0081;0,0;0,4;337;1,0;-0,15;0,36;0;0;nan;21,7;21,9;23,5;26,1;17,1;18,6;19,1;18,3;-15,0;23,5;1441
2023-09-04 02:00:00;11,9;102430;96;0,0081;0,05;0,4;354;1,9;-0,04;0,39;0;0;nan;21,6;21,8;23,5;26,1;16,6;18,3;19,0;18,3;-15,0;23,4;1443
2023-09-04 03:00:00;11,4;102420;97;0,008;0,03;0,3;190;1,0;-0,06;-0,33;0;0;nan;21,6;21,8;23,5;26,1;16,2;17,9;18,8;18,3;-15,0;23,3;1444
2023-09-04 04:00:00;11,7;102390;97;0,0081;0,03;0,6;108;1,6;0,53;-0,17;0;0;nan;21,6;21,8;23,4;26,1;15,8;17,6;18,6;18,3;-15,0;23,4;1443
2023-09-04 05:00:00;10,8;102370;99;0,0078;0,03;0,4;285;1,2;-0,42;0,11;9;0;nan;21,6;21,8;23,4;26,1;15,4;17,2;18,5;18,3;-15,0;23,3;1445
2023-09-04 06:00:00;11,9;102360;100;0,0085;0,02;0,9;95;2,4;0,86;-0,07;67;0;nan;21,6;21,7;23,4;26,1;15,2;16,9;18,3;18,3;-15,1;23,2;1446
2023-09-04 07:00:00;13,7;102350;100;0,0096;0,0;1,3;92;3,0;1,31;-0,05;203;0;nan;21,5;21,7;23,4;26,1;15,4;16,7;18,1;18,3;-15,1;23,3;1445
2023-09-04 08:00:00;16,0;102350;97;0,0108;0,0;1,2;52;3,6;0,91;0,72;335;0;nan;21,5;21,7;23,4;26,1;16,2;16,7;18,0;18,3;-15,1;23,1;1448
2023-09-04 09:00:00;18,5;102330;89;0,0116;0,0;1,5;78;3,1;1,46;0,3;459;0;nan;21,5;21,7;23,4;26,1;17,4;16,9;17,8;18,3;-15,1;22,9;1452
2023-09-04 10:00:00;21,1;102280;79;0,0121;0,0;1,5;71;3,8;1,46;0,49;549;0;nan;21,5;21,7;23,4;26,1;18,9;17,4;17,8;18,3;-15,1;23,0;1450
2023-09-04 11:00:00;22,9;102230;68;0,0116;0,0;2,1;91;4,7;2,08;-0,02;598;0;nan;21,5;21,7;23,4;26,1;20,4;18,1;17,8;18,3;-15,1;22,9;1452
2023-09-04 12:00:00;24,0;102190;60;0,0109;0,0;2,0;86;4,6;2,01;0,14;564;0;nan;21,6;21,6;23,4;26,1;21,8;18,9;18,0;18,2;-15,1;22,7;1454
2023-09-04 13:00:00;24,6;102150;60;0,0114;0,0;2,0;92;4,4;1,98;-0,06;569;0;nan;21,4;21,6;23,4;26,1;23,0;19,7;18,2;18,2;-15,1;22,8;1453
2023-09-04 14:00:00;25,1;102070;55;0,0107;0,0;2,7;100;5,5;2,62;-0,45;512;0;nan;21,4;21,6;23,4;26,1;23,8;20,5;18,4;18,2;-15,1;22,8;1453
2023-09-04 15:00:00;25,2;102030;57;0,0112;0,0;1,8;72;4,4;1,74;0,56;335;0;nan;21,3;21,6;23,4;26,1;24,1;21,1;18,7;18,2;-15,2;22,6;1457
2023-09-04 16:00:00;25,1;101960;59;0,0115;0,0;1,5;73;3,5;1,39;0,43;209;0;nan;21,2;21,6;23,4;26,1;24,1;21,6;19,1;18,2;-15,2;22,7;1455
2023-09-04 17:00:00;23,7;101950;68;0,0122;0,0;0,6;358;1,6;-0,02;0,6;70;0;nan;21,2;21,5;23,4;26,1;23,7;21,8;19,4;18,2;-15,2;22,7;1455
2023-09-04 18:00:00;20,4;101930;81;0,0119;0,0;0,4;318;1,0;-0,26;0,29;8;0;nan;21,1;21,5;23,4;26,1;22,9;21,8;19,6;18,2;-15,2;22,3;1462
2023-09-04 19:00:00;19,1;101930;84;0,0114;0,0;0,7;123;1,7;0,55;-0,36;0;0;nan;21,0;21,5;23,4;26,1;22,0;21,6;19,8;18,2;-15,2;22,9;1451
2023-09-04 20:00:00;18,5;101900;83;0,0108;0,0;0,6;101;1,5;0,64;-0,13;0;0;nan;21,0;21,5;23,3;26,1;21,3;21,3;19,9;18,3;-15,2;23,1;1448
2023-09-04 21:00:00;17,4;101843;86;0,0105;0,0;0,5;61;1,4;0,42;0,24;0;0;nan;20,9;21,4;23,3;26,1;20,6;21,0;19,9;18,3;-15,2;22,8;1452
2023-09-04 22:00:00;16,9;101790;87;0,0103;0,0;0,8;86;2,0;0,79;0,06;0;0;nan;20,9;21,4;23,3;26,1;20,0;20,6;19,9;18,4;-15,3;22,7;1455
2023-09-04 23:00:00;15,9;101750;90;0,01;0,0;0,4;125;1,0;0,33;-0,23;0;0;nan;20,8;21,4;23,3;26,1;19,4;20,3;19,9;18,4;-15,3;22,8;1452
2023-09-05 00:00:00;nan;nan;nan;nan;0,0;nan;nan;nan;nan;nan;nan;0;nan;20,8;21,4;23,3;26,1;18,9;20,0;19,8;18,4;-15,3;22,5;1458
2023-09-05 01:00:00;16,0;101740;89;0,0099;0,0;0,6;66;1,8;0,5;0,22;0;0;nan;20,8;21,3;23,3;26,1;18,5;19,6;19,7;18,5;-15,4;22,5;1459
2023-09-05 02:00:00;15,6;101730;91;0,0099;0,0;0,6;108;1,9;0,57;-0,18;0;0;nan;20,7;21,3;23,3;26,1;18,1;19,3;19,6;18,5;-15,4;22,3;1462
2023-09-05 03:00:00;14,2;101730;95;0,0094;0,0;0,5;101;1,2;0,5;-0,1;0;0;nan;20,7;21,3;23,3;26,1;17,7;19,0;19,4;18,6;-15,4;22,2;1464
2023-09-05 04:00:00;13,9;101737;94;0,0092;0,0;0,6;121;1,3;0,52;-0,31;0;0;nan;20,7;21,3;23,3;26,1;17,3;18,7;19,3;18,6;-15,4;21,7;1472
2023-09-05 05:00:00;14,9;101723;95;0,0099;0,0;0,5;96;1,3;0,42;-0,04;26;0;nan;20,7;21,2;23,3;26,1;17,0;18,4;19,2;18,6;-15,4;21,7;1473
2023-09-05 06:00:00;16,3;101730;95;0,0108;0,0;0,6;38;1,2;0,34;0,43;113;0;nan;20,6;21,2;23,3;26,1;16,8;18,1;19,0;18,6;-15,4;21,7;1473
2023-09-05 07:00:00;18,4;101740;90;0,0117;0,02;1,0;75;2,3;0,88;0,23;230;0;nan;20,6;21,2;23,2;26,1;17,1;17,9;18,9;18,6;-15,5;21,6;1475
2023-09-05 08:00:00;21,5;101730;79;0,0124;0,0;2,1;94;3,8;2,07;-0,14;389;0;nan;20,6;21,2;23,2;26,1;17,9;17,9;18,7;18,6;-15,5;21,7;1472
2023-09-05 09:00:00;23,3;101710;71;0,0125;0,0;2,1;96;4,4;2,07;-0,21;456;0;nan;20,6;21,2;23,2;26,1;19,1;18,2;18,7;18,6;-15,5;21,8;1470
2023-09-05 10:00:00;25,5;101675;63;0,0126;0,0;2,2;97;4,8;2,15;-0,28;554;0;nan;20,6;21,1;23,2;26,1;20,5;18,7;18,6;18,6;-15,5;21,6;1474
2023-09-05 11:00:00;27,4;101630;59;0,0133;0,0;2,5;97;4,9;2,49;-0,29;595;0;nan;20,6;21,1;23,2;26,1;22,0;19,4;18,7;18,6;-15,6;21,5;1476
2023-09-05 12:00:00;28,9;101600;52;0,0127;0,0;2,2;130;4,9;1,65;-1,38;569;0;nan;20,6;21,1;23,2;26,1;23,5;20,2;18,9;18,6;-15,6;21,5;1476
2023-09-05 13:00:00;29,8;101540;49;0,0127;0,0;2,3;103;4,9;2,22;-0,51;562;0;nan;20,7;21,1;23,2;26,1;24,7;21,1;19,1;18,6;-15,6;21,5;1477
2023-09-05 14:00:00;30,1;101490;48;0,0126;0,0;2,1;112;5,4;1,96;-0,79;471;0;nan;20,7;21,1;23,2;26,1;25,6;21,9;19,4;18,6;-15,6;21,6;1475
2023-09-05 15:00:00;30,1;101480;48;0,0126;0,0;1,8;106;4,2;1,69;-0,47;362;0;nan;20,7;21,0;23,2;26,1;26,1;22,6;19,7;18,6;-15,6;21,7;1472
2023-09-05 16:00:00;30,0;101460;48;0,0126;0,0;1,3;105;2,9;1,22;-0,32;248;0;nan;20,6;21,0;23,2;26,0;26,2;23,1;20,0;18,6;-15,6;21,5;1476
2023-09-05 17:00:00;28,2;101480;60;0,014;0,0;0,8;89;2,3;0,82;0,01;80;0;nan;20,5;21,0;23,2;26,0;25,9;23,4;20,4;18,6;-15,7;21,6;1475
2023-09-05 18:00:00;24,0;101520;74;0,0136;0,0;0,5;359;1,6;-0,01;0,52;3;0;nan;20,5;21,0;23,1;26,0;25,0;23,4;20,6;18,6;-15,7;21,6;1474
2023-09-05 19:00:00;21,5;101550;84;0,0133;0,0;0,3;281;0,7;-0,25;0,05;0;0;nan;20,5;21,0;23,1;26,0;24,0;23,3;20,9;18,7;-15,7;21,0;1487
2023-09-05 20:00:00;19,2;101555;91;0,0124;0,0;0,5;313;1,2;-0,34;0,32;0;0;nan;20,4;20,9;23,1;26,0;23,2;23,0;21,0;18,7;-15,7;20,9;1487
2023-09-05 21:00:00;17,7;101570;94;0,0117;0,0;0,4;317;1,0;-0,29;0,31;0;0;nan;20,3;20,9;23,1;26,0;22,4;22,6;21,0;18,8;-15,7;20,8;1489
2023-09-05 22:00:00;16,8;101570;95;0,0112;0,0;0,5;312;0,9;-0,35;0,31;0;0;nan;20,3;20,9;23,1;26,0;21,6;22,2;21,1;18,8;-15,8;20,9;1487
2023-09-05 23:00:00;16,1;101580;96;0,0108;0,0;0,3;301;0,9;-0,28;0,17;0;0;nan;20,2;20,8;23,1;26,0;20,9;21,8;21,0;18,9;-15,8;21,0;1486
2023-09-06 00:00:00;15,3;101610;96;0,0103;0,0;0,4;318;0,9;-0,24;0,26;0;0;nan;20,1;20,8;23,1;26,0;20,3;21,4;20,9;18,9;-15,8;21,2;1481
2023-09-06 01:00:00;14,4;101610;97;0,0098;0,02;0,3;302;0,8;-0,22;0,14;0;0;nan;20,1;20,8;23,1;26,0;19,7;21,0;20,8;19,0;-15,8;21,2;1482
2023-09-06 02:00:00;14,1;101610;97;0,0096;0,02;0,4;306;0,9;-0,3;0,22;0;0;nan;20,1;20,7;23,1;26,0;19,2;20,5;20,7;19,0;-15,9;21,3;1479
2023-09-06 03:00:00;13,6;101642;98;0,0094;0,1;0,4;316;1,0;-0,27;0,28;0;0;nan;20,1;20,7;23,1;26,0;18,7;20,2;20,5;19,1;-15,9;21,3;1479
2023-09-06 04:00:00;14,7;101650;95;0,0098;0,03;1,1;88;2,2;1,11;0,03;0;0;nan;20,0;20,7;23,0;26,0;18,3;19,8;20,4;19,1;-15,9;21,7;1473
2023-09-06 05:00:00;14,9;101680;96;0,01;0,02;0,9;87;2,0;0,86;0,05;24;0;nan;20,0;20,7;23,0;26,0;17,9;19,5;20,2;19,1;-15,9;21,6;1474
2023-09-06 06:00:00;15,9;101710;99;0,011;0,02;0,8;78;2,1;0,75;0,16;77;0;nan;20,0;20,6;23,0;26,0;17,8;19,2;20,0;19,2;-16,0;21,6;1475
2023-09-06 07:00:00;19,4;101730;92;0,0128;0,0;1,0;74;2,2;0,85;0,24;244;0;nan;20,0;20,6;23,0;26,0;18,0;19,0;19,9;19,2;-16,0;21,4;1478
2023-09-06 08:00:00;23,3;101740;74;0,013;0,0;2,0;106;4,9;1,92;-0,55;397;0;nan;20,0;20,6;23,0;26,0;18,8;19,0;19,7;19,2;-16,0;21,2;1481
2023-09-06 09:00:00;25,0;101740;66;0,0129;0,0;1,9;109;4,4;1,82;-0,63;462;0;nan;19,9;20,6;23,0;26,0;19,9;19,2;19,6;19,2;-16,0;21,1;1484
2023-09-06 10:00:00;26,9;101725;57;0,0125;0,0;2,1;114;4,4;1,9;-0,86;555;0;nan;19,9;20,6;23,0;26,0;21,4;19,7;19,6;19,2;-16,0;20,9;1488
2023-09-06 11:00:00;28,1;101700;52;0,0122;0,0;2,3;115;4,8;2,06;-0,98;606;0;nan;19,9;20,5;23,0;26,0;22,8;20,3;19,6;19,2;-16,1;21,2;1483
2023-09-06 12:00:00;28,8;101690;49;0,0119;0,0;2,6;93;5,4;2,59;-0,12;562;0;nan;20,0;20,5;23,0;26,0;24,2;21,1;19,7;19,2;-16,1;21,0;1485
2023-09-06 13:00:00;29,2;101660;49;0,0122;0,0;2,5;93;5,3;2,46;-0,13;578;0;nan;20,0;20,5;22,9;26,0;25,4;21,9;19,9;19,1;-16,1;21,1;1483
2023-09-06 14:00:00;29,5;101610;50;0,0128;0,0;2,3;90;5,1;2,3;0,02;493;0;nan;20,0;20,5;22,9;26,0;26,2;22,7;20,2;19,1;-16,2;21,0;1486
2023-09-06 15:00:00;29,5;101600;51;0,0129;0,0;1,9;80;4,1;1,87;0,33;348;0;nan;19,9;20,5;22,9;26,0;26,7;23,3;20,5;19,1;-16,2;20,9;1488
2023-09-06 16:00:00;29,2;101590;52;0,013;0,0;1,7;92;3,7;1,71;-0,07;235;0;nan;19,8;20,4;22,9;26,0;26,7;23,8;20,8;19,1;-16,2;20,8;1490
2023-09-06 17:00:00;27,6;101565;60;0,0136;0,0;0,7;79;1,9;0,68;0,14;72;0;nan;19,8;20,4;22,9;26,0;26,3;24,1;21,1;19,2;-16,2;20,9;1488
2023-09-06 18:00:00;22,7;101570;79;0,0134;0,0;0,5;335;0,8;-0,22;0,48;2;0;nan;19,7;20,4;22,9;26,0;25,4;24,1;21,4;19,2;-16,3;20,9;1487
2023-09-06 19:00:00;20,9;101610;84;0,0128;0,0;0,3;322;0,7;-0,19;0,24;0;0;nan;19,6;20,4;22,9;26,0;24,4;23,9;21,6;19,2;-16,3;20,8;1490
2023-09-06 20:00:00;21,2;101640;81;0,0125;0,0;0,7;133;2,0;0,5;-0,47;0;0;nan;19,6;20,4;22,9;26,0;23,6;23,5;21,7;19,3;-16,3;20,7;1491
2023-09-06 21:00:00;19,6;101670;86;0,012;0,0;0,5;106;1,2;0,08;-0,02;0;0;nan;19,5;20,3;22,9;26,0;22,8;23,2;21,7;19,3;-16,3;20,8;1489
2023-09-06 22:00:00;17,5;101700;92;0,0113;0,0;0,4;316;0,8;-0,29;0,3;0;0;nan;19,5;20,3;22,9;26,0;22,1;22,8;21,7;19,4;-16,3;20,6;1494
2023-09-06 23:00:00;16,7;101690;94;0,011;0,0;0,3;261;0,5;-0,26;-0,04;0;0;nan;19,5;20,3;22,9;26,0;21,4;22,3;21,6;19,4;-16,4;20,5;1495
2023-09-07 00:00:00;16,0;101690;94;0,0105;0,0;0,3;292;0,7;-0,28;0,11;0;0;nan;19,4;20,3;22,8;26,0;20,8;21,9;21,5;19,5;-16,4;20,3;1500
2023-09-07 01:00:00;15,6;101660;95;0,0103;0,0;0,3;268;0,8;-0,34;-0,01;0;0;nan;19,3;20,2;22,8;26,0;20,3;21,5;21,4;19,5;-16,4;20,1;1503
2023-09-07 02:00:00;15,6;101650;95;0,0103;0,0;0,4;175;1,1;0,03;-0,36;0;0;nan;19,3;20,2;22,8;26,0;19,8;21,1;21,3;19,6;-16,4;20,3;1500
2023-09-07 03:00:00;16,3;101640;93;0,0106;0,0;0,6;95;1,8;0,59;-0,05;0;0;nan;19,3;20,2;22,8;26,0;19,3;20,8;21,1;19,6;-16,5;20,2;1501
2023-09-07 04:00:00;16,0;101645;94;0,0105;0,08;0,6;98;1,8;0,63;-0,09;0;0;nan;19,3;20,2;22,8;26,0;18,9;20,4;21,0;19,6;-16,5;20,0;1505
2023-09-07 05:00:00;15,8;101640;95;0,0105;0,02;0,8;96;2,1;0,85;-0,09;15;0;nan;19,3;20,1;22,8;26,0;18,6;20,1;20,8;19,6;-16,5;20,1;1503
2023-09-07 06:00:00;17,2;101660;93;0,0112;0,0;1,1;69;2,6;1,0;0,38;106;0;nan;19,3;20,1;22,8;26,0;18,4;19,8;20,6;19,7;-16,5;20,1;1503
2023-09-07 07:00:00;19,2;101670;88;0,012;0,0;1,2;71;2,5;1,11;0,39;241;0;nan;19,3;20,1;22,8;26,0;18,5;19,6;20,5;19,7;-16,6;20,2;1501
2023-09-07 08:00:00;21,3;101680;81;0,0126;0,0;1,6;93;3,1;1,63;-0,09;378;0;nan;19,3;20,1;22,7;26,0;19,2;19,6;20,3;19,7;-16,6;20,1;1503
2023-09-07 09:00:00;23,7;101660;74;0,0133;0,0;1,6;71;3,4;1,47;0,52;485;0;nan;19,4;20,1;22,7;26,0;20,3;19,7;20,2;19,7;-16,6;20,1;1504
2023-09-07 10:00:00;26,2;101630;63;0,0132;0,0;2,2;107;4,3;2,08;-0,64;561;0;nan;19,4;20,0;22,7;26,0;21,7;20,2;20,1;19,7;-16,7;20,2;1501
2023-09-07 11:00:00;27,5;101590;58;0,0131;0,0;2,4;94;5,4;2,44;-0,18;592;0;nan;19,4;20,0;22,7;26,0;23,2;20,8;20,1;19,6;-16,7;20,1;1503
2023-09-07 12:00:00;28,1;101570;57;0,0133;0,0;2,5;97;5,2;2,45;-0,3;558;0;nan;19,4;20,0;22,7;26,0;24,6;21,6;20,3;19,6;-16,7;20,2;1502
2023-09-07 13:00:00;28,6;101520;55;0,0133;0,0;2,8;96;6,0;2,77;-0,27;562;0;nan;19,4;20,0;22,7;26,0;25,8;22,4;20,5;19,6;-16,7;20,2;1502
2023-09-07 14:00:00;29,2;101480;52;0,013;0,0;2,6;99;6,2;2,62;-0,41;468;0;nan;19,3;20,0;22,7;26,0;26,5;23,1;20,7;19,6;-16,8;20,1;1503
2023-09-07 15:00:00;29,4;101450;51;0,0129;0,0;2,4;87;5,7;2,34;0,12;329;0;nan;19,3;20,0;22,7;26,0;26,9;23,7;21,0;19,6;-16,8;20,2;1501
2023-09-07 16:00:00;28,7;101430;54;0,0131;0,0;1,7;90;4,7;1,73;-0,01;180;0;nan;19,3;19,9;22,7;26,0;26,8;24,2;21,3;19,6;-16,8;20,2;1502
2023-09-07 17:00:00;26,7;101410;59;0,0127;0,0;1,1;95;3,6;1,13;-0,09;38;0;nan;19,2;19,9;22,7;26,0;26,4;24,4;21,6;19,6;-16,8;20,1;1504
2023-09-07 18:00:00;23,7;101440;68;0,0123;0,0;0,8;111;2,1;0,77;-0,29;2;0;nan;19,1;19,9;22,6;26,0;25,4;24,4;21,8;19,6;-16,8;20,0;1505
2023-09-07 19:00:00;21,9;101460;73;0,0118;0,0;0,7;90;1,8;0,74;0,0;0;0;nan;19,1;19,9;22,6;26,0;24,5;24,1;22,0;19,7;-16,9;20,1;1503
2023-09-07 20:00:00;19,2;101500;83;0,0114;0,0;0,4;144;1,2;0,25;-0,34;0;0;nan;19,0;19,9;22,6;26,0;23,6;23,8;22,1;19,7;-16,9;20,4;1498
2023-09-07 21:00:00;17,4;101500;89;0,0109;0,0;0,4;150;1,4;0,2;-0,34;0;0;nan;19,0;19,8;22,6;26,0;22,8;23,3;22,1;19,7;-17,0;20,5;1495
2023-09-07 22:00:00;nan;nan;nan;nan;0,0;nan;nan;nan;nan;nan;nan;0;nan;18,9;19,8;22,6;26,0;22,0;22,9;22,1;19,8;-17,0;20,7;1491
2023-09-07 23:00:00;17,3;101487;90;0,011;0,0;0,7;115;1,4;0,65;-0,31;0;0;nan;18,8;19,8;22,6;26,0;21,4;22,5;22,0;19,8;-17,0;20,6;1493
2023-09-08 00:00:00;16,0;101460;94;0,0105;0,0;0,4;312;1,2;-0,32;0,29;0;0;nan;18,8;19,8;22,6;26,0;20,8;22,1;21,9;19,9;-17,0;20,5;1495
2023-09-08 01:00:00;15,0;101450;95;0,01;0,0;0,5;317;1,2;-0,34;0,36;0;0;nan;18,8;19,7;22,6;26,0;20,3;21,7;21,7;19,9;-17,1;20,6;1494
2023-09-08 02:00:00;14,4;101450;96;0,0097;0,0;0,3;256;0,7;-0,32;-0,08;0;0;nan;18,8;19,7;22,6;26,0;19,8;21,3;21,6;20,0;-17,2;20,4;1498
2023-09-08 03:00:00;13,9;101440;97;0,0095;0,0;0,5;73;1,3;0,5;0,15;0;0;nan;18,8;19,7;22,5;26,0;19,3;20,9;21,4;20,0;-17,1;20,3;1500
2023-09-08 04:00:00;13,6;101410;97;0,0093;0,03;0,4;319;1,0;-0,26;0,3;0;0;nan;18,8;19,7;22,5;26,0;18,9;20,5;21,3;20,0;-17,2;20,3;1499
2023-09-08 05:00:00;13,3;101390;96;0,009;0,02;0,4;213;0,8;-0,21;-0,32;2;0;nan;18,8;19,7;22,5;26,0;18,4;20,2;21,1;20,0;-17,2;20,2;1501